PDT,Max TemperatureF,Mean TemperatureF,Min TemperatureF,Max Dew PointF,MeanDew PointF,Min DewpointF,Max Humidity, Mean Humidity, Min Humidity, Max Sea Level PressureIn, Mean Sea Level PressureIn, Min Sea Level PressureIn, Max VisibilityMiles, Mean VisibilityMiles, Min VisibilityMiles, Max Wind SpeedMPH, Mean Wind SpeedMPH, Max Gust SpeedMPH,PrecipitationIn, CloudCover, Events, WindDirDegrees
2012-10-1,95,70,44,37,32,25,66,34,8,30.19,30.12,30.02,10,10,10,10,2,17,0.00,0,,270
2012-10-2,93,70,46,36,32,18,66,35,7,30.07,30.00,29.90,10,10,10,12,2,16,0.00,0,,284
2012-10-3,91,68,44,41,34,30,66,36,11,30.03,29.98,29.91,10,10,10,6,2,,0.00,0,,165
2012-10-4,87,66,44,37,35,28,71,40,12,30.10,30.06,30.01,10,10,10,12,2,22,0.00,,,219
2012-10-5,75,60,44,46,39,32,71,51,29,30.14,30.10,30.06,10,10,10,7,2,,0.00,,,100
2012-10-6,75,57,39,43,38,34,93,57,23,30.11,30.05,29.99,10,10,10,7,1,,0.00,,,59
2012-10-7,78,58,39,43,39,37,93,59,23,30.05,29.99,29.91,10,10,10,6,1,,0.00,,,88
2012-10-8,71,56,42,45,41,39,87,66,33,30.06,30.00,29.97,10,10,10,8,1,,0.00,,,66
2012-10-9,73,55,37,43,37,32,93,62,23,30.08,30.03,29.96,10,10,10,6,1,,0.00,,,142
2012-10-10,80,60,41,39,36,32,81,52,17,30.01,29.94,29.85,10,10,10,8,2,,0.00,,,236
2012-10-11,82,60,39,45,37,27,87,57,14,29.97,29.89,29.76,10,10,10,5,1,,0.00,,,246
2012-10-12,64,56,48,45,44,43,82,67,48,30.25,30.06,29.97,10,10,10,5,0,,0.00,,,60
2012-10-13,75,62,48,50,46,45,87,67,38,30.34,30.27,30.21,10,10,10,8,1,,0.00,,,237
2012-10-14,77,59,41,48,44,37,93,65,25,30.27,30.20,30.11,10,10,10,9,2,,0.00,,,224
2012-10-15,75,62,48,57,51,43,87,67,43,30.18,30.10,30.04,10,10,10,14,3,24,0.00,,,213
2012-10-16,73,58,44,57,49,34,82,60,31,30.14,30.04,29.99,10,10,9,15,8,24,0.00,,,218
2012-10-17,78,56,35,41,35,28,87,57,16,30.16,30.10,30.01,10,10,10,6,1,,0.00,,,48
2012-10-18,84,60,35,37,32,27,81,48,13,30.11,30.07,29.99,10,10,10,7,1,,0.00,,,201
2012-10-19,77,58,39,48,37,32,76,51,22,30.12,30.04,29.94,10,10,10,12,3,20,0.00,,,225
2012-10-20,64,52,41,50,40,32,81,57,34,29.97,29.90,29.84,10,10,10,15,7,25,0.00,,,218
2012-10-21,59,46,32,36,28,21,87,52,23,29.93,29.85,29.72,10,10,9,12,3,16,0.00,,,230
2012-10-22,48,42,37,41,37,34,93,85,62,29.82,29.74,29.67,10,9,4,9,2,18,0.32,,,218
2012-10-23,48,40,32,39,34,28,100,80,46,29.99,29.94,29.82,10,8,0,12,2,,0.18,,,232
2012-10-24,50,42,35,39,37,34,100,84,62,30.20,30.05,29.95,10,10,5,10,2,16,0.05,,,211
2012-10-25,57,45,33,36,34,28,100,74,33,30.36,30.30,30.20,10,10,9,7,1,,0.00,,,43
2012-10-26,62,47,32,48,39,28,100,79,54,30.35,30.27,30.17,10,10,1,14,2,23,0.00,,,224
2012-10-27,71,56,41,52,46,39,100,81,46,30.21,30.16,30.08,10,8,0,8,1,,0.00,,,291
2012-10-28,68,56,44,54,48,43,100,84,46,30.14,30.08,30.01,10,8,1,5,1,,0.00,,,17
2012-10-29,68,54,41,50,45,39,100,81,46,30.22,30.14,30.09,10,10,8,5,1,,0.00,,,210
2012-10-30,68,54,41,50,45,41,100,82,49,30.13,30.05,29.96,10,8,0,6,1,,0.00,,,47
2012-10-31,51,48,44,48,46,43,100,94,82,29.97,29.93,29.89,10,7,0,9,0,,0.58,,,57